Weather History for Gulf Shores, AL

Change the Weather History Date:

Tuesday, July 23, 2013

  Actual Average (KPNS) Record (KPNS)
Temperature  
Mean Temperature 80 °F 82 °F  
Max Temperature 87 °F 90 °F 98 °F (2010)
Min Temperature 73 °F 75 °F 64 °F (1947)
Cooling Degree Days 15 17  
Month to date cooling degree days 391  
Year to date cooling degree days 1304  
Since 1 June cooling degree days 856  
Growing Degree Days 30 (Base 50)    
Moisture  
Dew Point 73 °F    
Average Humidity 75    
Maximum Humidity 89    
Minimum Humidity 58    
Precipitation  
Precipitation 0.00 in 0.24 in 3.05 in (1890)
Month to date precipitation 5.45  
Year to date precipitation 36.05  
Sea Level Pressure  
Sea Level Pressure 30.00 in    
Wind  
Wind Speed 6 mph (WSW)    
Max Wind Speed 20 mph    
Max Gust Speed 22 mph    
Visibility 9 miles    
Events Thunderstorm    
T = Trace of Precipitation, MM = Missing Value Source: NWS Daily Summary

Daily Weather History Graph

Daily Weather History Graph

Search for Another Location

Airport:

Trip Planner

Search our weather history database for the weather conditions in past years. The results will help you decide how hot, cold, wet, or windy it might be!

Date:

Astronomy

Jul. 23, 2013 Rise Set
Actual Time 6:03 AM CDT 7:50 PM CDT
Civil Twilight 5:37 AM CDT 8:16 PM CDT
Nautical Twilight 5:05 AM CDT 8:48 PM CDT
Astronomical Twilight 4:31 AM CDT 9:22 PM CDT
Moon 8:29 PM CDT (7/23) 7:03 AM CDT (7/23)
Length of Visible Light 14h 39m
Length of Day
13h 46m
Full, 99% of the Moon is Illuminated
Jul 23
Full
Jul 29
Last Quarter
Aug 6
New
Aug 14
First Quarter
Aug 20
Full

Hourly Weather History & Observations

Time (CDT) Temp. Heat Index Dew Point Humidity Pressure Visibility Wind Dir Wind Speed Gust Speed Precip Events Conditions
12:15 AM 73.4 °F - 69.8 °F 88% 30.04 in 10.0 mi Calm Calm - N/A   Clear
12:35 AM 73.4 °F - 69.8 °F 88% 30.03 in 10.0 mi Calm Calm - N/A   Clear
12:55 AM 75.2 °F - 71.6 °F 89% 30.02 in 10.0 mi South 3.5 mph - N/A   Clear
1:15 AM 77.0 °F - 73.4 °F 89% 30.02 in 10.0 mi SSW 3.5 mph - N/A   Scattered Clouds
1:35 AM 77.0 °F - 71.6 °F 83% 30.01 in 10.0 mi SSW 4.6 mph - N/A   Scattered Clouds
1:55 AM 78.8 °F - 73.4 °F 83% 30.01 in 10.0 mi SW 5.8 mph - N/A   Mostly Cloudy
2:15 AM 78.8 °F - 73.4 °F 83% 30.01 in 10.0 mi SW 8.1 mph - N/A   Scattered Clouds
2:35 AM 78.8 °F - 73.4 °F 83% 30.01 in 7.0 mi SW 8.1 mph - N/A   Scattered Clouds
2:55 AM 78.8 °F - 75.2 °F 89% 30.02 in 7.0 mi WSW 5.8 mph - N/A   Scattered Clouds
3:15 AM 80.6 °F 86.2 °F 75.2 °F 84% 30.02 in 7.0 mi WSW 9.2 mph - N/A   Scattered Clouds
3:35 AM 80.6 °F 86.2 °F 75.2 °F 84% 30.02 in 7.0 mi WSW 8.1 mph - N/A   Scattered Clouds
3:55 AM 80.6 °F 86.2 °F 75.2 °F 84% 30.02 in 7.0 mi WSW 8.1 mph - N/A   Scattered Clouds
4:15 AM 80.6 °F 86.2 °F 75.2 °F 84% 30.02 in 7.0 mi WSW 8.1 mph - N/A   Scattered Clouds
4:35 AM 78.8 °F - 73.4 °F 83% 30.02 in 7.0 mi WSW 6.9 mph - N/A   Scattered Clouds
4:55 AM 78.8 °F - 73.4 °F 83% 30.03 in 7.0 mi SW 6.9 mph - N/A   Scattered Clouds
5:15 AM 78.8 °F - 73.4 °F 83% 30.03 in 7.0 mi WSW 5.8 mph - N/A   Mostly Cloudy
5:35 AM 78.8 °F - 73.4 °F 83% 30.03 in 7.0 mi West 5.8 mph - N/A   Scattered Clouds
5:55 AM 78.8 °F - 73.4 °F 83% 30.03 in 7.0 mi West 6.9 mph - N/A   Scattered Clouds
6:15 AM 78.8 °F - 73.4 °F 83% 30.04 in 7.0 mi West 6.9 mph - N/A   Scattered Clouds
6:35 AM 78.8 °F - 75.2 °F 89% 30.04 in 7.0 mi West 4.6 mph - N/A   Mostly Cloudy
6:55 AM 80.6 °F 86.2 °F 75.2 °F 84% 30.04 in 7.0 mi West 5.8 mph - N/A   Scattered Clouds
7:15 AM 80.6 °F 86.2 °F 75.2 °F 84% 30.03 in 7.0 mi West 6.9 mph - N/A   Clear
7:35 AM 82.4 °F 89.5 °F 75.2 °F 79% 30.04 in 7.0 mi West 10.4 mph - N/A   Scattered Clouds
7:55 AM 82.4 °F 89.5 °F 75.2 °F 79% 30.05 in 7.0 mi West 8.1 mph - N/A   Scattered Clouds
8:15 AM 82.4 °F 89.5 °F 75.2 °F 79% 30.05 in 7.0 mi WNW 4.6 mph - N/A   Mostly Cloudy
8:35 AM 82.4 °F 88.2 °F 73.4 °F 74% 30.05 in 7.0 mi West 9.2 mph - N/A   Overcast
8:55 AM 82.4 °F 88.2 °F 73.4 °F 74% 30.05 in 10.0 mi West 10.4 mph 18.4 mph N/A   Scattered Clouds
9:15 AM 84.2 °F 90.9 °F 73.4 °F 70% 30.05 in 10.0 mi West 15.0 mph - N/A   Scattered Clouds
9:35 AM 84.2 °F 90.9 °F 73.4 °F 70% 30.06 in 10.0 mi West 13.8 mph 18.4 mph N/A   Scattered Clouds
9:55 AM 84.2 °F 90.9 °F 73.4 °F 70% 30.06 in 10.0 mi West 13.8 mph 21.9 mph N/A   Mostly Cloudy
10:15 AM 86.0 °F 93.4 °F 73.4 °F 66% 30.06 in 10.0 mi West 9.2 mph 18.4 mph N/A   Mostly Cloudy
10:35 AM 86.0 °F 93.4 °F 73.4 °F 66% 30.06 in 10.0 mi West 10.4 mph 19.6 mph N/A   Mostly Cloudy
10:55 AM 84.2 °F 90.9 °F 73.4 °F 70% 30.06 in 10.0 mi WSW 11.5 mph 16.1 mph N/A   Mostly Cloudy
11:15 AM 86.0 °F 93.4 °F 73.4 °F 66% 30.05 in 10.0 mi North - - N/A   Mostly Cloudy
11:35 AM 86.0 °F 93.4 °F 73.4 °F 66% 30.05 in 10.0 mi West 15.0 mph 19.6 mph N/A   Mostly Cloudy
11:55 AM 87.8 °F 93.8 °F 71.6 °F 58% 30.05 in 10.0 mi West 15.0 mph - N/A   Mostly Cloudy
12:15 PM 87.8 °F 93.8 °F 71.6 °F 58% 30.04 in 10.0 mi West 15.0 mph - N/A   Scattered Clouds
12:35 PM 87.8 °F 95.6 °F 73.4 °F 62% 30.03 in 10.0 mi North - - N/A   Scattered Clouds
12:55 PM 87.8 °F 95.6 °F 73.4 °F 62% 30.02 in 10.0 mi WSW 15.0 mph - N/A   Scattered Clouds
1:15 PM 87.8 °F 95.6 °F 73.4 °F 62% 30.01 in 10.0 mi North - - N/A   Clear
1:35 PM 87.8 °F 95.6 °F 73.4 °F 62% 30.02 in 10.0 mi West 19.6 mph - N/A   Scattered Clouds
1:55 PM 87.8 °F 95.6 °F 73.4 °F 62% 30.01 in 10.0 mi North - - N/A   Scattered Clouds
2:15 PM 87.8 °F 95.6 °F 73.4 °F 62% 30.00 in 10.0 mi North - - N/A   Mostly Cloudy
2:35 PM 86.0 °F 93.4 °F 73.4 °F 66% 29.99 in 10.0 mi North - - N/A   Overcast
3:15 PM 86.0 °F 93.4 °F 73.4 °F 66% 29.98 in 10.0 mi North - - N/A   Overcast
3:35 PM 86.0 °F 93.4 °F 73.4 °F 66% 29.98 in 10.0 mi North - - N/A   Overcast
3:55 PM 86.0 °F 93.4 °F 73.4 °F 66% 29.97 in 10.0 mi North - - N/A   Overcast
4:15 PM 86.0 °F 93.4 °F 73.4 °F 66% 29.97 in 10.0 mi North - - N/A   Mostly Cloudy
4:35 PM 86.0 °F 93.4 °F 73.4 °F 66% 29.97 in 10.0 mi North - - N/A   Overcast
4:55 PM 86.0 °F 93.4 °F 73.4 °F 66% 29.97 in 10.0 mi North - - N/A   Mostly Cloudy
5:15 PM 86.0 °F 93.4 °F 73.4 °F 66% 29.97 in 10.0 mi WSW 12.7 mph - N/A   Scattered Clouds
5:35 PM 86.0 °F 93.4 °F 73.4 °F 66% 29.97 in 10.0 mi WSW 13.8 mph - N/A   Scattered Clouds
5:55 PM 86.0 °F 93.4 °F 73.4 °F 66% 29.97 in 10.0 mi North - - N/A   Scattered Clouds
6:15 PM 84.2 °F 90.9 °F 73.4 °F 70% 29.95 in 10.0 mi North - - N/A   Scattered Clouds
6:35 PM 84.2 °F 90.9 °F 73.4 °F 70% 29.95 in 10.0 mi WSW 11.5 mph - N/A Thunderstorm Clear
6:55 PM 84.2 °F 90.9 °F 73.4 °F 70% 29.96 in 10.0 mi SW 9.2 mph - N/A Thunderstorm Clear
7:15 PM 82.4 °F 88.2 °F 73.4 °F 74% 29.96 in 10.0 mi SW 9.2 mph - N/A   Clear
7:35 PM 82.4 °F 88.2 °F 73.4 °F 74% 29.95 in 7.0 mi SW 11.5 mph - N/A   Clear
7:55 PM 82.4 °F 88.2 °F 73.4 °F 74% 29.94 in 10.0 mi WSW 8.1 mph - N/A   Clear
8:15 PM 78.8 °F - 69.8 °F 74% 29.95 in 10.0 mi Calm Calm - N/A   Scattered Clouds
8:35 PM 77.0 °F - 69.8 °F 78% 29.96 in 10.0 mi ENE 5.8 mph - N/A   Mostly Cloudy
8:55 PM 77.0 °F - 69.8 °F 78% 29.95 in 10.0 mi East 3.5 mph - N/A   Scattered Clouds
9:15 PM 78.8 °F - 71.6 °F 78% 29.96 in 10.0 mi NNE 3.5 mph - N/A   Scattered Clouds
9:35 PM 77.0 °F - 71.6 °F 83% 29.96 in 10.0 mi Calm Calm - N/A   Scattered Clouds
9:55 PM 77.0 °F - 71.6 °F 83% 29.96 in 10.0 mi Calm Calm - N/A   Clear
10:15 PM 78.8 °F - 71.6 °F 78% 29.96 in 10.0 mi Calm Calm - N/A   Clear
10:35 PM 78.8 °F - 73.4 °F 83% 29.95 in 10.0 mi Calm Calm - N/A   Clear
10:55 PM 80.6 °F 85.4 °F 73.4 °F 79% 29.96 in 10.0 mi WSW 6.9 mph - N/A   Clear
11:15 PM 80.6 °F 85.4 °F 73.4 °F 79% 29.95 in 10.0 mi WSW 5.8 mph - N/A   Clear
11:35 PM 80.6 °F 85.4 °F 73.4 °F 79% 29.95 in 10.0 mi WSW 9.2 mph - N/A   Clear
11:55 PM 82.4 °F 88.2 °F 73.4 °F 74% 29.95 in 10.0 mi WSW 12.7 mph - N/A   Clear